Flag for U.S.A. Weather past 2 weeks in Irvine, California, U.S.A.

Now
74 °F

Passing clouds.


Feels Like: 77 °F
Forecast: 58 / 79 °F
Wind: 6 mph from Southwest

Location: John Wayne Airport-Orange County Airport

Current Time: Mar 28, 2015 at 5:25:25 PM

Latest Report: Mar 28, 2015 at 4:53 PM


Visibility: 10 mi

Pressure: 29.98 "Hg

Humidity: 48%

Dew point: 53 °F

Location of IrvineLocation

Historic Weather in Irvine — Graph

°F

Irvine temperature yesterday

Maximum temperature yesterday: 85 °F (at 1:53 PM)
Minimum temperature yesterday: 61 °F (at 4:53 AM)
Average temperature yesterday: 70 °F

Past Weeks' High & Low Weather Summary

 TemperatureHumidityPressure
High91 °F (Mar 14, 1:53 PM)93% (Mar 28, 4:53 AM)30.19 "Hg (Mar 28, 4:53 AM)
Low58 °F (Mar 24, 2:53 AM)11% (Mar 14, 1:53 PM)29.87 "Hg (Mar 16, 5:53 PM)
Average68 °F57%30.02 "Hg
* Reported Mar 13 3:53 PM — Mar 28 3:53 PM, Irvine, Weather by CustomWeather, © 2015

Note: Actual official high and low records may vary slightly from our data, if they occured in-between our weather recording intervals... More about our weather records

Advertising

Irvine weather history for previous 24 hours

 ConditionsComfort  
Time TempWeatherWind HumidityBarometerVisibility
3:53 PM
Sat, Mar 28
75 °FPassing clouds.7 mph47%29.99 "Hg10 mi
2:53 PM78 °FPassing clouds.12 mph45%30.01 "Hg10 mi
1:53 PM75 °FPassing clouds.7 mph52%30.03 "Hg10 mi
12:53 PM72 °FPassing clouds.8 mph53%30.06 "Hg10 mi
11:53 AM71 °FPassing clouds.10 mph59%30.07 "Hg7 mi
10:53 AM69 °FPassing clouds.7 mph66%30.07 "Hg7 mi
9:53 AM66 °FPassing clouds.5 mph73%30.07 "Hg7 mi
8:53 AM61 °FPassing clouds.3 mph83%30.07 "Hg7 mi
7:53 AM58 °FFog.3 mph90%30.06 "Hg4 mi
6:53 AM58 °FFog.3 mph87%30.06 "Hg4 mi
5:53 AM59 °FFog.3 mph90%30.05 "Hg3 mi
4:53 AM59 °FPassing clouds.No wind93%30.05 "Hg8 mi
3:53 AM60 °FPassing clouds.6 mph86%30.05 "Hg10 mi
2:53 AM61 °FClear.No wind81%30.05 "Hg10 mi
1:53 AM62 °FClear.3 mph78%30.05 "Hg10 mi
12:53 AM62 °FClear.3 mph83%30.06 "Hg10 mi
11:53 PM
Fri, Mar 27
63 °FClear.7 mph81%30.06 "Hg10 mi
10:53 PM63 °FClear.5 mph81%30.05 "Hg10 mi
9:53 PM64 °FClear.5 mph78%30.03 "Hg10 mi
8:53 PM66 °FClear.6 mph70%30.02 "Hg10 mi
7:53 PM67 °FSunny.7 mph66%30.00 "Hg10 mi
6:53 PM71 °FSunny.6 mph59%29.99 "Hg10 mi
5:53 PM75 °FSunny.7 mph43%29.99 "Hg10 mi
Weather by CustomWeather, © 2015

See weather overviewHow to use our weather pages